When you browse on this site, cookies collect data to enhance your experience and personalize the content and advertising you see.
Visit our Privacy Policy to learn more. By continuing to use the site, you agree to this use of cookies and data.
  • In United Kingdom
  • List of Countries
  • For 7 days
  • Water Temperature
  • Weather Map
  • Weather Widgets
  • user-avatar
    Login

    Hourly Weather Bingley

    Today, 21 September, Saturday

    Time Temperature Precipitation Wind Pressure Humidity
    00:00 +12°C° 0 mm 2 mps 747 mmHg 86%
    01:00 +10°C° 0 mm 2 mps 747 mmHg 87%
    02:00 +10°C° 0 mm 3 mps 746 mmHg 88%
    03:00 +10°C° 0 mm 3 mps 745 mmHg 89%
    04:00 +10°C° 0 mm 3 mps 745 mmHg 89%
    05:00 +10°C° 0 mm 3 mps 744 mmHg 90%
    06:00 +10°C° 0 mm 3 mps 744 mmHg 90%
    07:00 +11°C° 0 mm 3 mps 744 mmHg 83%
    08:00 +13°C° 0 mm 4 mps 743 mmHg 77%
    09:00 +14°C° 0 mm 5 mps 743 mmHg 70%
    10:00 +15°C° 0 mm 5 mps 743 mmHg 65%
    11:00 +17°C° 0 mm 5 mps 742 mmHg 61%
    12:00 +19°C° 0 mm 5 mps 742 mmHg 56%
    13:00 +19°C° 0 mm 5 mps 741 mmHg 55%
    14:00 +20°C° 0 mm 5 mps 741 mmHg 55%
    15:00 +20°C° 0 mm 5 mps 740 mmHg 54%
    16:00 +19°C° 0 mm 4 mps 740 mmHg 58%
    17:00 +18°C° 0 mm 4 mps 740 mmHg 61%
    18:00 +17°C° 0 mm 4 mps 739 mmHg 65%
    19:00 +16°C° 0 mm 3 mps 739 mmHg 69%
    20:00 +14°C° 0 mm 3 mps 739 mmHg 72%
    21:00 +14°C° 0 mm 2 mps 739 mmHg 76%
    22:00 +14°C° 0 mm 2 mps 738 mmHg 77%
    23:00 +14°C° 0 mm 2 mps 738 mmHg 78%

    Tomorrow, 22 September, Sunday

    Time Temperature Precipitation Wind Pressure Humidity
    00:00 +14°C° 0 mm 2 mps 737 mmHg 79%
    01:00 +14°C° 0 mm 2 mps 737 mmHg 81%
    02:00 +13°C° 0 mm 2 mps 736 mmHg 82%
    03:00 +13°C° 0 mm 2 mps 736 mmHg 83%
    04:00 +13°C° 0.1 mm 2 mps 736 mmHg 85%
    05:00 +13°C° 0.1 mm 2 mps 735 mmHg 86%
    06:00 +14°C° 0.1 mm 2 mps 735 mmHg 88%
    07:00 +15°C° 0.1 mm 2 mps 735 mmHg 87%
    08:00 +16°C° 0.1 mm 2 mps 734 mmHg 86%
    09:00 +17°C° 0.1 mm 2 mps 734 mmHg 85%
    10:00 +18°C° 0 mm 3 mps 734 mmHg 81%
    11:00 +20°C° 0 mm 3 mps 734 mmHg 77%
    12:00 +21°C° 0 mm 4 mps 734 mmHg 72%
    13:00 +20°C° 1 mm 4 mps 734 mmHg 76%
    14:00 +19°C° 1 mm 4 mps 734 mmHg 80%
    15:00 +16°C° 1 mm 5 mps 734 mmHg 84%
    16:00 +15°C° 0.1 mm 4 mps 734 mmHg 85%
    17:00 +16°C° 0.1 mm 3 mps 734 mmHg 85%
    18:00 +15°C° 0.1 mm 2 mps 734 mmHg 85%
    19:00 +15°C° 0 mm 2 mps 734 mmHg 86%
    20:00 +14°C° 0 mm 2 mps 735 mmHg 87%
    21:00 +14°C° 0 mm 1 mps 735 mmHg 88%
    22:00 +13°C° 0 mm 1 mps 735 mmHg 89%
    23:00 +13°C° 0 mm 1 mps 735 mmHg 89%

    Day after tomorrow, 23 September, Monday

    Time Temperature Precipitation Wind Pressure Humidity
    00:00 +13°C° 0 mm 1 mps 735 mmHg 90%
    01:00 +13°C° 0 mm 1 mps 735 mmHg 91%
    02:00 +13°C° 0 mm 1 mps 735 mmHg 92%
    03:00 +12°C° 0 mm 1 mps 736 mmHg 93%
    04:00 +13°C° 0 mm 2 mps 736 mmHg 93%
    05:00 +13°C° 0 mm 2 mps 736 mmHg 93%
    06:00 +12°C° 0 mm 3 mps 736 mmHg 92%
    07:00 +13°C° 0 mm 3 mps 737 mmHg 88%
    08:00 +13°C° 0 mm 3 mps 737 mmHg 84%
    09:00 +14°C° 0 mm 3 mps 737 mmHg 79%
    10:00 +15°C° 0 mm 4 mps 737 mmHg 73%
    11:00 +15°C° 0 mm 4 mps 737 mmHg 68%
    12:00 +16°C° 0 mm 5 mps 737 mmHg 62%
    13:00 +17°C° 0 mm 4 mps 737 mmHg 61%
    14:00 +17°C° 0 mm 4 mps 737 mmHg 61%
    15:00 +18°C° 0 mm 4 mps 736 mmHg 60%
    16:00 +15°C° 0.4 mm 4 mps 736 mmHg 69%
    17:00 +14°C° 0.4 mm 4 mps 735 mmHg 77%
    18:00 +13°C° 0.4 mm 4 mps 735 mmHg 86%
    19:00 +13°C° 0.6 mm 4 mps 735 mmHg 87%
    20:00 +13°C° 0.6 mm 4 mps 734 mmHg 89%
    21:00 +13°C° 0.6 mm 5 mps 734 mmHg 91%
    22:00 +13°C° 0.6 mm 4 mps 734 mmHg 92%
    23:00 +14°C° 0.6 mm 3 mps 733 mmHg 93%

    24 September, Tuesday

    Time Temperature Precipitation Wind Pressure Humidity
    00:00 +14°C° 0.6 mm 3 mps 733 mmHg 94%
    01:00 +14°C° 0.2 mm 3 mps 733 mmHg 94%
    02:00 +14°C° 0.2 mm 3 mps 733 mmHg 94%
    03:00 +14°C° 0.2 mm 3 mps 732 mmHg 95%
    04:00 +14°C° 0 mm 2 mps 732 mmHg 94%
    05:00 +14°C° 0 mm 2 mps 732 mmHg 94%
    06:00 +14°C° 0 mm 2 mps 731 mmHg 94%
    07:00 +14°C° 0.1 mm 3 mps 731 mmHg 91%
    08:00 +16°C° 0.1 mm 3 mps 731 mmHg 89%
    09:00 +15°C° 0.1 mm 4 mps 731 mmHg 86%
    10:00 +15°C° 0.7 mm 4 mps 730 mmHg 84%
    11:00 +16°C° 0.7 mm 3 mps 730 mmHg 83%
    12:00 +16°C° 0.7 mm 3 mps 730 mmHg 81%
    13:00 +17°C° 0.7 mm 4 mps 730 mmHg 77%
    14:00 +16°C° 0.7 mm 5 mps 729 mmHg 73%
    15:00 +17°C° 0.7 mm 5 mps 729 mmHg 70%
    16:00 +16°C° 0.4 mm 5 mps 729 mmHg 75%
    17:00 +14°C° 0.4 mm 4 mps 728 mmHg 80%
    18:00 +13°C° 0.4 mm 4 mps 728 mmHg 85%
    19:00 +13°C° 0.8 mm 4 mps 728 mmHg 87%
    20:00 +13°C° 0.8 mm 4 mps 727 mmHg 88%
    21:00 +13°C° 0.8 mm 4 mps 727 mmHg 89%
    22:00 +13°C° 0.2 mm 5 mps 726 mmHg 89%
    23:00 +13°C° 0.2 mm 5 mps 726 mmHg 88%

    25 September, Wednesday

    Time Temperature Precipitation Wind Pressure Humidity
    00:00 +13°C° 0.2 mm 6 mps 725 mmHg 88%
    01:00 +13°C° 1.2 mm 6 mps 725 mmHg 89%
    02:00 +13°C° 1.2 mm 6 mps 725 mmHg 90%
    03:00 +13°C° 1.2 mm 6 mps 725 mmHg 92%
    04:00 +12°C° 0.7 mm 7 mps 725 mmHg 91%
    05:00 +12°C° 0.7 mm 7 mps 725 mmHg 90%
    06:00 +12°C° 0.7 mm 8 mps 726 mmHg 89%
    07:00 +12°C° 0.2 mm 8 mps 726 mmHg 88%
    08:00 +12°C° 0.2 mm 8 mps 727 mmHg 87%
    09:00 +12°C° 0.2 mm 8 mps 727 mmHg 86%
    10:00 +12°C° 0.1 mm 8 mps 728 mmHg 85%
    11:00 +12°C° 0.1 mm 7 mps 728 mmHg 83%
    12:00 +14°C° 0.1 mm 7 mps 729 mmHg 81%
    13:00 +14°C° 0.2 mm 7 mps 729 mmHg 81%
    14:00 +14°C° 0.2 mm 6 mps 729 mmHg 82%
    15:00 +13°C° 0.2 mm 6 mps 729 mmHg 83%
    16:00 +13°C° 0.1 mm 5 mps 729 mmHg 84%
    17:00 +13°C° 0.1 mm 5 mps 730 mmHg 85%
    18:00 +13°C° 0.1 mm 4 mps 730 mmHg 86%
    19:00 +12°C° 0 mm 3 mps 730 mmHg 87%
    20:00 +12°C° 0 mm 3 mps 730 mmHg 87%
    21:00 +12°C° 0 mm 2 mps 730 mmHg 88%
    22:00 +12°C° 0 mm 2 mps 730 mmHg 89%
    23:00 +10°C° 0 mm 2 mps 730 mmHg 89%

    26 September, Thursday

    Time Temperature Precipitation Wind Pressure Humidity
    00:00 +11°C° 0 mm 1 mps 729 mmHg 90%
    01:00 +10°C° 0.3 mm 2 mps 729 mmHg 91%
    02:00 +12°C° 0.3 mm 2 mps 728 mmHg 92%
    03:00 +11°C° 0.3 mm 3 mps 727 mmHg 93%
    04:00 +11°C° 1.3 mm 3 mps 727 mmHg 94%
    05:00 +12°C° 1.3 mm 3 mps 726 mmHg 95%
    06:00 +12°C° 1.3 mm 3 mps 726 mmHg 96%
    07:00 +13°C° 0.2 mm 4 mps 726 mmHg 93%
    08:00 +13°C° 0.2 mm 5 mps 726 mmHg 89%
    09:00 +14°C° 0.2 mm 6 mps 726 mmHg 85%
    10:00 +14°C° 0.4 mm 7 mps 726 mmHg 81%
    11:00 +15°C° 0.4 mm 7 mps 726 mmHg 76%
    12:00 +15°C° 0.4 mm 8 mps 726 mmHg 71%
    13:00 +15°C° 0.1 mm 8 mps 726 mmHg 69%
    14:00 +15°C° 0.1 mm 8 mps 726 mmHg 67%
    15:00 +13°C° 0.1 mm 8 mps 726 mmHg 65%
    16:00 +12°C° 0.2 mm 7 mps 727 mmHg 70%
    17:00 +11°C° 0.2 mm 6 mps 727 mmHg 75%
    18:00 +10°C° 0.2 mm 5 mps 727 mmHg 79%
    19:00 +10°C° 0.2 mm 5 mps 727 mmHg 81%
    20:00 +10°C° 0.2 mm 5 mps 727 mmHg 83%
    21:00 +10°C° 0.2 mm 5 mps 727 mmHg 84%
    22:00 +10°C° 0.1 mm 5 mps 727 mmHg 85%
    23:00 +10°C° 0.1 mm 5 mps 727 mmHg 85%
    Show more